SCP
0 0 0 0 0 0 0 0 0 0 0 0 0 0 0 0 0 0 0 0 0 0 0 0 0 0 0 0 0 0 0 0 0 0 0 0 0 0 0 0 0 0 0 0 0 0 0 0 0 0 0 0 0 0
-0 0 0 0 0 0 0 0 0 0 0 0 0 0 0 0 0 0 0 0 0 0 0 0 0 0 0 0 0 0 0 0 0 0 0 0 0 0 0 0 0 0 0 0 0 0 0 0 0 0 0 0 0 0
0 -0 0 0 0 0 0 0 0 0 0 0 0 0 -0 -0 0 0 0 0 0 0 0 0 0 0 0 0 0 0 0 0 0 0 0 0 0 0 0 0 0 0 0 0 0 0 0 0 0 0 0 0 0 0
0 -0 -0 0 0 0 0 0 0 0 0 0 0 0 0 0 0 0 0 0 0 0 0 0 0 0 0 0 0 0 0 0 0 0 0 0 0 0 0 0 0 0 0 0 0 0 0 0 0 0 0 0 0 0
-0 0 -0 -0 0 0 0 0 0 0 0 0 0 0 0 0 0 0 0 0 0 0 0 0 0 0 0 0 0 0 0 0 0 0 0 0 0 0 0 0 0 0 0 0 0 0 0 0 0 0 0 0 0 0
0 -0 0 -0 0 0 0 0 0 0 0 0 0 0 0 0 0 0 0 0 0 0 0 0 0 0 0 0 0 0 0 0 0 0 0 0 0 0 0 0 0 0 0 0 0 0 0 0 0 0 0 0 0 0
-0 -0 -0 -0 -0 0 0 0 0 0 0 0 0 0 0 0 0 0 0 0 0 0 0 0 0 0 0 0 0 0 0 0 0 0 0 0 0 0 0 0 0 0 0 0 0 0 0 0 0 0 0 0 0 -0
-0 -0 -0 -0 0 0 0 0 0 0 0 0 0 0 0 0 0 0 0 0 0 0 0 0 0 0 0 0 0 0 0 0 0 0 0 0 0 0 0 0 0 0 0 0 0 0 0 0 0 0 0 0 0 -0
-0 -0 -0 -0 0 0 0 0 0 0 0 0 0 0 0 0 0 0 0 0 0 0 0 0 0 0 0 0 0 0 0 0 0 0 0 0 0 0 0 0 0 0 0 0 0 0 0 0 0 0 0 0 0 -0
-0 -0 -0 -0 -0 0 0 0 0 0 0 0 0 0 0 0 0 0 0 0 0 0 0 0 0 0 0 0 0 0 0 0 0 0 0 0 0 0 0 0 0 0 0 0 0 0 0 0 0 0 0 0 0 0
-0 -0 -0 0 0 0 0 0 0 0 0 0 0 0 0 0 0 0 0 0 0 0 0 0 0 0 0 0 0 0 0 0 0 0 0 0 0 0 0 0 0 0 0 0 0 0 0 0 0 0 0 0 -0 -0
0 -0 0 0 0 0 0 0 0 0 0 0 0 0 0 0 0 0 0 0 0 0 0 0 0 0 0 0 0 0 0 0 0 0 0 0 0 0 0 0 0 0 0 0 0 0 0 0 0 0 0 -0 -0 -0
-0 0 0 0 0 0 0 0 0 0 0 0 0 0 0 0 0 0 0 0 0 0 0 0 0 0 0 0 0 0 0 0 0 0 0 0 0 0 0 0 0 0 0 0 0 0 0 0 0 0 -0 -0 -0 -0
-0 0 0 0 0 0 0 0 0 0 0 0 0 0 0 0 0 0 0 0 0 0 0 0 0 0 0 0 0 0 0 0 0 0 0 0 0 0 0 0 0 0 0 0 0 0 0 0 0 0 -0 -0 -0 -0
-0 0 0 0 0 0 0 0 0 0 0 0 0 0 0 0 0 0 0 0 0 0 0 0 0 0 0 0 0 0 0 0 0 0 0 0 0 0 0 0 0 0 0 0 0 0 0 0 0 0 0 0 -0 -0
0 -0 0 -0 0 0 0 0 0 0 0 0 0 0 0 0 0 0 0 0 0 0 0 0 0 0 0 0 0 0 0 0 0 0 0 0 0 0 0 0 0 0 0 0 0 0 0 0 0 0 0 0 0 0
0 0 0 -0 0 0 0 0 0 0 0 0 0 0 0 0 0 0 0 0 0 0 0 0 0 0 0 0 0 0 0 0 0 0 0 0 0 0 0 0 0 0 0 0 0 0 0 0 0 0 0 0 0 0
0 0 0 0 0 0 0 0 0 0 0 0 0 0 0 0 0 0 0 0 0 0 0 0 0 0 0 0 0 0 0 0 0 0 0 0 0 0 0 0 0 0 0 0 0 0 0 0 0 0 0 0 0 0
-0 0 0 0 0 0 0 0 0 0 0 0 0 0 0 0 0 0 0 0 0 0 0 0 0 0 0 0 0 0 0 0 0 0 0 0 0 0 0 0 0 0 0 0 0 0 0 0 0 0 0 0 0 0
0 -0 0 0 0 0 0 0 0 0 0 0 0 0 0 0 0 0 0 0 0 0 0 0 0 0 0 0 0 0 0 0 0 0 0 0 0 0 0 0 0 0 0 0 0 0 0 0 0 0 0 0 0 0
0 0 0 0 0 0 0 0 0 0 0 0 0 0 0 0 0 0 0 0 0 0 0 0 0 0 0 0 0 0 0 0 0 0 0 0 0 0 0 0 0 0 0 0 0 0 0 0 0 0 0 0 0 0
0 0 0 0 0 0 0 0 0 0 0 0 0 0 0 0 0 0 0 0 0 0 0 0 0 0 0 0 0 0 0 0 0 0 0 0 0 0 0 0 0 0 0 0 0 0 0 0 0 0 0 0 0 0
0 0 0 0 0 0 0 0 0 0 0 0 0 0 0 0 0 0 0 0 0 0 0 0 0 0 0 0 0 0 0 0 0 0 0 0 0 0 0 0 0 0 0 0 0 0 0 0 0 0 0 0 0 0
0 0 0 0 0 0 0 0 0 0 0 0 0 0 0 0 0 0 0 0 0 0 0 0 0 0 0 0 0 0 0 0 0 0 0 0 0 0 0 0 0 0 0 0 0 0 0 0 0 0 0 0 0 0
0 0 0 0 0 0 0 0 0 0 0 0 0 0 0 0 0 0 0 0 0 0 0 0 0 0 0 0 0 0 0 0 0 0 0 0 0 0 0 0 0 0 0 0 0 0 0 0 0 0 0 0 0 0
0 0 0 0 0 0 0 0 0 0 0 0 0 0 0 0 0 0 0 0 0 0 0 0 0 0 0 0 0 0 0 0 0 0 0 0 0 0 0 0 0 0 0 0 0 0 0 0 0 0 0 0 0 0
0 0 0 0 0 0 0 0 0 0 0 0 0 0 0 0 0 0 0 0 0 0 0 0 0 0 0 0 0 0 0 0 0 0 0 0 0 0 0 0 0 0 0 0 0 0 0 0 0 0 0 0 0 0
0 0 0 0 0 0 0 0 0 0 0 0 0 0 0 0 0 0 0 0 0 0 0 0 0 0 0 0 0 0 0 0 0 0 0 0 0 0 0 0 0 0 0 0 0 0 0 0 0 0 0 0 0 0
0 0 0 0 0 0 0 0 0 0 0 0 0 0 0 0 0 0 0 0 0 0 0 0 0 0 0 0 0 0 0 0 0 -0 0 0 0 0 0 0 0 0 0 0 0 0 -0 -0 0 -0 -0 -0 -0 -0
0 0 0 0 0 0 0 0 0 0 0 0 0 0 0 0 0 0 0 0 0 0 0 0 0 0 0 0 0 0 0 0 0 0 0 0 0 0 0 -0 -0 -0 -0 -0 0 0 -0 0 0 0 0 0 0 0
0 0 0 0 0 0 0 0 0 0 0 0 0 0 0 0 0 0 0 0 0 0 0 0 0 0 0 -0 -0 -0 -0 -0 -0 -0 -0 -0 -0 -0 -0 -0 -0 -0 0 0 0 0 0 0 0 0 0 0 0 0
0 0 0 0 0 0 0 0 0 0 0 0 0 0 0 0 0 0 0 0 0 0 0 0 0 -0 -0 -0 -0 -0 -0 -0 0 0 0 -0 -0 -0 -0 -0 0 0 0 0 0 0 0 -0 -0 -0 -0 -0 -0 -0
0 0 0 0 0 0 0 0 0 0 0 0 0 0 0 0 0 0 0 0 0 0 0 0 -0 -0 -0 -0 -0 -0 0 -0 0 0 -0 -0 0 0 0 0 0 0 0 0 -0 -0 -0 -0 -0 -0 -0 -0 -0 -0
Wind_Speed_500mb
59 56 57 54 55 55 54 49 42 40 32 42 37 39 43 66 53 56 40 30 37 12 7 7 9 3 11 21 9 16 12 7 8 11 8 6 7 9 5 5 10 16 17 10 11 11 15 18 13 7 3 11 17 20
53 53 54 51 54 53 52 48 44 41 33 42 36 34 42 68 59 60 39 32 38 18 4 12 18 22 20 16 11 30 3 9 14 8 4 3 5 4 5 5 9 10 7 5 12 3 7 26 3 4 12 12 16 25
51 48 51 47 50 50 46 47 46 38 34 43 40 33 41 59 65 61 51 41 36 19 10 9 7 10 16 19 22 12 8 13 13 9 6 2 9 4 7 9 9 11 10 5 3 8 7 10 12 6 10 15 17 19
52 47 46 47 46 49 44 45 43 37 32 35 34 34 40 54 71 56 46 44 45 13 7 8 18 12 10 12 16 20 10 22 17 12 4 4 5 5 3 4 6 4 18 14 6 7 18 16 6 4 13 16 17 19
48 48 43 47 45 48 44 43 41 38 34 38 30 31 36 68 66 53 38 40 44 10 5 5 11 15 18 18 15 21 22 25 14 8 4 5 4 5 1 4 12 18 11 10 4 21 4 16 6 4 12 15 18 21
51 46 46 46 45 45 45 44 43 38 37 41 35 33 46 74 68 50 15 35 49 22 5 4 5 2 11 20 22 10 26 19 11 12 7 6 5 5 5 6 8 27 12 5 8 15 10 9 7 7 11 14 16 18
55 56 55 51 49 46 44 44 44 36 37 35 34 18 46 74 67 33 15 13 54 42 1 5 2 2 5 8 8 12 16 6 7 8 6 9 8 11 5 8 7 22 20 17 13 11 11 10 6 4 9 12 16 18
47 37 24 46 45 43 44 45 42 36 34 29 31 17 54 72 73 23 13 29 54 29 7 5 2 4 10 6 5 7 6 7 4 4 8 6 8 8 10 17 9 24 24 17 19 12 15 13 8 5 10 14 20 29
28 10 16 32 37 38 41 40 40 35 28 32 21 48 71 58 32 25 43 47 38 10 9 6 8 5 13 5 5 4 4 3 0 3 4 6 7 11 11 15 28 38 27 24 25 17 17 14 8 5 10 20 25 30
18 5 16 25 31 35 38 41 40 35 30 33 25 21 10 31 50 61 19 10 10 3 3 2 10 6 10 8 3 6 0 2 5 3 3 6 10 39 32 21 28 39 32 32 33 25 21 14 9 9 16 22 27 33
16 3 8 23 29 37 41 40 40 40 50 34 11 9 59 82 38 10 9 7 6 4 5 7 6 10 7 6 6 0 4 2 5 5 6 6 8 9 34 41 31 38 33 34 26 24 21 14 10 10 13 19 26 32
18 5 6 18 30 38 40 44 45 50 29 27 26 64 25 9 11 9 3 5 6 6 10 10 9 8 9 7 6 4 4 3 4 2 5 6 7 13 21 37 40 39 38 34 30 23 15 9 7 12 17 22 27 33
9 6 9 17 29 36 43 42 41 40 44 57 25 9 4 3 8 14 15 6 5 14 18 15 9 9 8 6 9 4 7 4 3 6 7 9 1 9 34 46 47 43 37 31 24 15 7 2 6 13 19 25 31 35
10 14 10 30 30 36 41 45 41 64 60 9 8 9 6 8 8 5 8 9 9 12 31 27 14 7 6 6 5 6 3 3 5 7 10 4 12 20 41 44 45 42 35 26 17 11 7 7 13 19 25 31 35 39
18 18 22 39 35 48 50 70 64 54 9 9 6 5 5 4 10 11 27 20 16 32 31 18 11 5 4 5 4 7 4 8 8 8 4 6 8 33 49 45 38 32 26 19 15 12 13 20 26 29 33 37 41 46
34 43 39 51 38 69 77 69 37 19 8 6 6 7 5 7 5 10 14 17 34 37 25 12 6 4 3 3 6 10 5 9 4 5 12 14 25 45 44 39 31 23 19 15 18 21 26 30 35 41 46 48 46 50
36 46 56 71 78 77 65 32 11 12 8 5 5 14 8 14 14 13 19 22 46 19 5 5 7 4 6 3 5 7 8 4 7 11 7 27 39 36 28 22 19 19 22 25 28 33 38 44 50 55 58 55 53 55
42 35 42 51 37 32 27 12 11 9 10 12 3 7 12 13 23 20 20 45 21 10 11 4 13 6 8 8 6 6 18 13 8 19 25 26 21 15 13 14 17 22 29 35 40 46 51 54 57 57 57 57 57 58
37 29 22 23 20 7 7 10 9 10 7 7 12 13 16 19 23 22 36 31 18 15 15 5 1 4 5 8 7 7 13 19 21 15 13 14 14 18 24 30 35 40 44 47 50 52 53 54 56 57 60 59 58 58
16 21 19 12 10 8 8 9 9 9 6 6 9 10 12 13 16 25 32 22 21 11 4 5 7 8 8 6 5 12 17 25 7 7 14 19 22 29 34 35 37 40 45 50 53 55 58 62 64 64 62 60 60 62
7 10 12 12 16 14 10 7 11 9 10 9 15 9 11 17 11 10 10 16 6 7 6 19 24 19 13 10 10 22 19 23 26 27 31 37 37 36 37 38 41 45 49 51 56 59 62 64 61 59 62 62 60 60
2 3 6 10 12 9 11 13 10 9 7 11 9 8 9 6 7 8 13 9 10 16 19 23 29 20 27 30 29 30 30 32 36 39 41 42 46 45 45 44 42 44 47 51 54 58 62 62 64 65 65 65 63 62
7 3 3 4 5 8 5 6 5 6 5 4 4 5 4 3 6 10 6 13 17 28 33 34 33 29 28 29 30 30 31 33 38 39 39 41 44 46 47 47 46 50 56 59 62 63 66 66 65 62 62 62 62 63
12 3 2 3 5 4 7 5 6 7 7 3 3 4 3 3 5 4 6 9 23 29 27 21 18 22 26 30 31 27 24 28 29 32 33 37 40 40 41 46 50 54 58 64 65 64 63 60 56 54 51 48 46 44
1 2 2 5 6 6 5 3 3 3 5 3 5 2 3 3 3 3 5 12 18 24 20 21 25 28 31 27 21 16 18 21 22 25 29 34 40 45 48 51 55 57 58 57 53 51 48 45 43 41 37 31 26 24
6 7 6 11 5 7 7 7 8 7 6 5 4 5 3 3 2 10 7 20 32 29 23 21 21 22 23 18 16 16 20 25 31 36 39 40 43 47 51 56 57 47 46 45 42 38 35 32 29 25 19 11 6 7
10 12 12 11 11 15 7 5 7 4 9 9 8 8 6 6 10 9 18 32 35 31 23 19 22 21 20 22 22 24 30 36 38 40 44 46 46 46 46 44 41 37 36 32 30 29 26 21 15 10 4 2 4 6
11 30 16 26 13 14 9 6 10 13 8 15 22 9 16 16 11 9 8 15 15 14 16 16 16 17 22 27 30 35 37 38 42 45 46 45 43 39 36 33 30 25 23 21 18 15 12 7 2 4 7 7 11 14
14 25 29 9 8 10 19 14 14 19 20 33 11 9 11 16 17 15 14 13 16 17 14 16 19 25 31 36 38 40 42 43 44 45 44 38 33 29 26 23 19 16 13 10 8 4 3 8 11 13 15 17 21 24
22 43 17 17 14 16 24 32 17 26 35 30 18 14 20 27 30 29 27 23 21 23 27 31 35 38 39 41 44 44 42 39 38 35 31 25 20 20 17 12 8 5 5 4 4 9 15 20 24 27 29 32 31 31
20 37 11 16 10 18 29 39 31 24 27 28 33 27 31 19 28 32 33 32 31 35 40 40 41 38 37 38 38 37 33 31 27 22 18 13 11 9 4 2 5 8 11 14 17 21 26 32 35 37 38 38 36 30
18 19 11 10 6 7 12 15 14 17 16 17 17 23 20 15 14 30 40 45 48 43 38 34 31 26 24 29 31 29 24 17 11 8 5 4 1 4 8 12 16 19 22 26 31 35 38 41 42 41 40 37 33 27
5 7 6 8 7 8 12 13 13 7 9 9 13 15 16 12 14 17 23 30 27 23 23 26 24 21 20 19 15 8 3 3 6 5 4 9 12 15 19 23 27 31 36 41 43 43 43 43 43 40 35 31 26 21
Wind_Direction_500mb
283 274 268 270 263 261 264 261 262 261 260 248 248 252 241 207 201 207 219 223 202 218 258 236 242 181 168 182 164 134 129 177 181 211 213 185 239 192 227 128 180 179 174 188 197 225 257 140 139 219 42 303 307 313
285 272 270 267 262 254 255 256 258 250 251 245 238 250 256 198 196 206 209 214 197 207 201 239 231 228 216 192 166 171 28 152 174 199 207 181 207 179 247 238 189 215 233 194 212 195 92 163 68 226 332 312 322 318
297 284 270 260 259 251 248 249 248 248 247 236 238 240 240 206 195 206 215 195 187 200 231 196 174 177 199 189 186 170 206 175 183 149 137 108 243 194 218 228 207 217 205 243 212 160 175 176 158 327 343 326 322 322
295 286 270 257 253 249 241 246 244 240 236 235 238 243 233 209 189 202 207 191 184 160 201 185 206 205 212 222 210 207 200 186 176 142 124 173 219 203 282 343 246 48 164 198 238 134 109 146 124 358 347 341 335 334
298 286 269 251 246 242 234 239 236 233 235 233 249 255 227 191 186 194 200 196 190 192 147 135 193 228 229 222 214 220 216 182 159 147 151 194 156 190 159 276 238 189 187 194 209 143 92 133 171 323 350 348 348 346
300 289 269 246 237 232 229 232 230 227 227 222 240 239 209 179 182 166 178 208 198 191 145 144 214 232 229 237 229 200 187 183 168 150 166 178 179 218 231 246 238 198 198 169 161 144 128 159 171 337 350 347 354 359
306 294 263 233 224 222 221 225 220 214 218 216 230 189 163 176 180 164 181 190 188 187 209 110 164 223 143 129 161 200 188 154 152 154 168 161 188 200 251 245 179 187 182 186 176 151 128 146 169 346 15 11 12 14
325 329 211 199 211 212 213 216 207 209 216 211 214 206 168 164 165 168 149 157 167 165 177 133 109 177 160 122 125 120 134 149 75 100 140 186 145 217 255 229 185 167 177 183 176 176 159 156 143 70 38 34 28 22
329 352 177 186 202 211 204 199 194 196 203 189 204 172 154 160 153 148 139 144 157 162 163 175 172 166 156 108 101 100 107 153 212 210 172 185 171 224 244 206 194 190 186 186 175 166 157 153 137 81 35 27 22 15
334 307 201 201 199 197 189 184 184 183 179 185 180 158 99 151 148 130 127 132 161 235 166 139 129 132 174 153 94 132 101 122 213 157 147 227 251 249 252 238 221 197 192 181 166 169 173 164 132 60 31 18 11 2
358 3 199 198 187 179 175 175 176 174 167 142 122 83 137 134 129 96 109 149 156 217 180 136 145 133 165 164 139 36 166 139 225 134 227 220 259 234 237 216 200 192 190 181 181 169 164 146 114 65 26 10 2 353
11 41 158 177 175 169 170 169 169 168 161 163 139 134 151 117 87 95 81 128 207 200 161 156 137 117 143 140 116 155 154 179 234 104 224 250 245 235 192 179 173 178 175 172 170 166 157 132 62 21 1 355 351 347
345 15 171 170 175 173 173 173 183 181 161 138 135 136 165 92 126 169 163 181 198 169 172 161 133 135 124 129 96 153 174 202 114 200 236 243 209 203 180 173 168 169 169 171 170 163 162 101 354 335 335 335 336 337
305 307 212 179 176 175 175 175 172 144 142 105 123 140 214 184 187 167 152 126 127 133 146 142 115 129 138 150 138 171 72 226 220 230 237 255 265 205 180 174 173 170 172 175 175 194 229 288 301 310 317 320 319 321
296 271 217 175 169 165 166 167 171 155 92 90 111 162 200 125 63 120 110 109 123 145 135 109 87 104 111 111 52 119 156 241 231 238 246 313 246 179 172 173 172 175 180 191 212 244 275 287 294 300 303 306 308 310
80 92 149 165 168 161 156 156 134 100 71 76 86 119 105 131 140 106 117 126 132 140 118 94 108 144 103 103 168 215 217 229 239 237 276 280 177 169 170 172 175 183 204 227 255 274 282 290 294 294 293 295 299 302
99 87 102 127 138 146 146 121 83 49 75 74 74 111 129 84 120 136 128 133 145 135 107 133 146 144 118 172 234 204 221 273 301 297 164 150 154 161 167 180 198 223 246 262 274 279 284 286 287 289 291 297 297 296
126 140 112 105 105 106 106 78 86 86 66 46 8 50 71 103 124 112 116 145 143 134 130 124 129 169 197 199 217 217 229 257 226 147 140 144 143 161 193 224 248 260 266 271 278 280 280 283 286 289 293 294 293 294
107 109 104 95 78 88 63 47 55 98 95 107 88 72 83 86 101 122 144 144 129 127 122 105 158 216 230 229 264 247 195 160 146 133 144 176 209 234 249 258 264 269 274 276 276 276 279 281 286 288 289 291 291 289
96 96 70 63 21 72 72 52 60 82 89 105 99 80 81 85 107 130 145 142 137 132 152 191 216 219 220 271 250 168 136 160 176 219 241 243 257 265 268 271 271 274 275 277 277 279 282 285 287 290 290 288 284 282
44 79 61 11 41 63 83 58 56 72 97 86 113 72 87 100 105 149 148 156 162 212 227 226 231 240 228 202 195 194 225 256 263 268 277 284 284 282 278 275 275 277 279 282 284 287 290 292 294 292 291 288 284 279
317 151 68 34 36 54 65 48 91 95 88 123 118 106 120 116 114 141 179 194 232 226 217 242 260 254 236 244 249 252 257 264 267 271 274 275 274 275 276 274 272 275 279 283 287 291 293 295 294 292 289 287 282 278
205 163 55 55 72 48 65 60 73 57 86 122 95 90 73 98 168 159 229 229 242 249 256 261 264 265 263 261 260 262 264 265 268 272 275 275 275 275 272 273 280 287 294 297 298 298 299 298 296 295 292 289 284 277
136 153 129 73 61 115 121 59 78 93 101 84 120 133 157 149 146 220 258 251 244 256 254 252 258 262 264 268 274 286 283 283 286 287 289 288 288 285 282 286 290 293 297 297 299 298 298 300 301 301 300 295 288 279
265 275 140 52 103 111 90 97 49 99 122 159 128 193 140 144 184 223 243 265 254 256 261 265 265 267 267 274 276 268 274 285 292 298 300 296 294 292 291 293 295 298 298 297 298 299 301 301 302 303 301 294 288 284
211 198 177 183 152 168 169 144 185 171 124 149 183 122 111 117 133 242 230 247 259 269 278 294 286 265 259 251 254 259 270 283 288 287 290 292 293 293 295 296 299 304 303 301 301 300 303 306 307 307 308 311 291 248
191 209 183 181 161 143 101 100 136 147 169 187 167 161 146 166 234 247 244 258 267 279 288 269 259 253 252 259 264 275 282 285 287 288 290 292 294 296 297 298 302 305 302 302 304 305 305 302 305 315 350 67 130 170
203 176 172 175 172 183 138 154 177 197 193 164 137 176 181 197 225 211 251 288 303 296 250 245 255 264 274 282 285 285 288 292 292 292 293 295 299 299 299 301 305 305 307 310 308 304 298 290 263 128 117 129 144 140
174 174 156 136 146 193 205 187 201 215 188 170 181 194 224 220 233 232 243 254 282 299 275 256 266 277 284 286 286 289 293 295 295 295 296 299 302 302 304 308 310 311 315 319 313 293 162 139 132 129 132 133 132 130
187 176 164 164 170 207 216 200 214 216 202 205 215 226 240 249 253 254 250 246 253 265 270 277 284 290 289 287 289 291 294 293 290 287 290 297 299 303 307 312 319 343 19 33 69 117 123 126 128 129 130 127 124 122
174 181 172 175 216 210 212 212 220 216 214 230 237 241 247 256 259 264 264 265 269 274 278 278 281 283 288 290 292 294 294 294 288 288 289 290 301 304 306 115 111 106 104 105 112 120 124 125 124 123 123 122 120 119
179 190 179 183 191 226 212 199 200 205 213 210 229 238 253 257 261 271 266 272 270 266 266 267 264 266 278 285 288 289 291 295 285 268 252 289 298 133 128 122 118 117 117 119 121 122 124 125 124 123 120 117 113 107
194 188 169 136 145 159 178 167 191 200 215 221 222 227 225 231 245 256 258 253 252 242 238 245 255 267 276 277 278 284 265 195 173 168 149 138 132 128 125 126 126 125 124 123 123 124 124 122 119 117 114 108 100 89
Wind_Speed_850mb
59 56 57 54 55 55 54 49 42 40 32 42 37 39 43 66 53 56 40 30 37 12 7 7 9 3 11 21 9 16 12 7 8 11 8 6 7 9 5 5 10 16 17 10 11 11 15 18 13 7 3 11 17 20
53 53 54 51 54 53 52 48 44 41 33 42 36 34 42 68 59 60 39 32 38 18 4 12 18 22 20 16 11 30 3 9 14 8 4 3 5 4 5 5 9 10 7 5 12 3 7 26 3 4 12 12 16 25
51 48 51 47 50 50 46 47 46 38 34 43 40 33 41 59 65 61 51 41 36 19 10 9 7 10 16 19 22 12 8 13 13 9 6 2 9 4 7 9 9 11 10 5 3 8 7 10 12 6 10 15 17 19
52 47 46 47 46 49 44 45 43 37 32 35 34 34 40 54 71 56 46 44 45 13 7 8 18 12 10 12 16 20 10 22 17 12 4 4 5 5 3 4 6 4 18 14 6 7 18 16 6 4 13 16 17 19
48 48 43 47 45 48 44 43 41 38 34 38 30 31 36 68 66 53 38 40 44 10 5 5 11 15 18 18 15 21 22 25 14 8 4 5 4 5 1 4 12 18 11 10 4 21 4 16 6 4 12 15 18 21
51 46 46 46 45 45 45 44 43 38 37 41 35 33 46 74 68 50 15 35 49 22 5 4 5 2 11 20 22 10 26 19 11 12 7 6 5 5 5 6 8 27 12 5 8 15 10 9 7 7 11 14 16 18
55 56 55 51 49 46 44 44 44 36 37 35 34 18 46 74 67 33 15 13 54 42 1 5 2 2 5 8 8 12 16 6 7 8 6 9 8 11 5 8 7 22 20 17 13 11 11 10 6 4 9 12 16 18
47 37 24 46 45 43 44 45 42 36 34 29 31 17 54 72 73 23 13 29 54 29 7 5 2 4 10 6 5 7 6 7 4 4 8 6 8 8 10 17 9 24 24 17 19 12 15 13 8 5 10 14 20 29
28 10 16 32 37 38 41 40 40 35 28 32 21 48 71 58 32 25 43 47 38 10 9 6 8 5 13 5 5 4 4 3 0 3 4 6 7 11 11 15 28 38 27 24 25 17 17 14 8 5 10 20 25 30
18 5 16 25 31 35 38 41 40 35 30 33 25 21 10 31 50 61 19 10 10 3 3 2 10 6 10 8 3 6 0 2 5 3 3 6 10 39 32 21 28 39 32 32 33 25 21 14 9 9 16 22 27 33
16 3 8 23 29 37 41 40 40 40 50 34 11 9 59 82 38 10 9 7 6 4 5 7 6 10 7 6 6 0 4 2 5 5 6 6 8 9 34 41 31 38 33 34 26 24 21 14 10 10 13 19 26 32
18 5 6 18 30 38 40 44 45 50 29 27 26 64 25 9 11 9 3 5 6 6 10 10 9 8 9 7 6 4 4 3 4 2 5 6 7 13 21 37 40 39 38 34 30 23 15 9 7 12 17 22 27 33
9 6 9 17 29 36 43 42 41 40 44 57 25 9 4 3 8 14 15 6 5 14 18 15 9 9 8 6 9 4 7 4 3 6 7 9 1 9 34 46 47 43 37 31 24 15 7 2 6 13 19 25 31 35
10 14 10 30 30 36 41 45 41 64 60 9 8 9 6 8 8 5 8 9 9 12 31 27 14 7 6 6 5 6 3 3 5 7 10 4 12 20 41 44 45 42 35 26 17 11 7 7 13 19 25 31 35 39
18 18 22 39 35 48 50 70 64 54 9 9 6 5 5 4 10 11 27 20 16 32 31 18 11 5 4 5 4 7 4 8 8 8 4 6 8 33 49 45 38 32 26 19 15 12 13 20 26 29 33 37 41 46
34 43 39 51 38 69 77 69 37 19 8 6 6 7 5 7 5 10 14 17 34 37 25 12 6 4 3 3 6 10 5 9 4 5 12 14 25 45 44 39 31 23 19 15 18 21 26 30 35 41 46 48 46 50
36 46 56 71 78 77 65 32 11 12 8 5 5 14 8 14 14 13 19 22 46 19 5 5 7 4 6 3 5 7 8 4 7 11 7 27 39 36 28 22 19 19 22 25 28 33 38 44 50 55 58 55 53 55
42 35 42 51 37 32 27 12 11 9 10 12 3 7 12 13 23 20 20 45 21 10 11 4 13 6 8 8 6 6 18 13 8 19 25 26 21 15 13 14 17 22 29 35 40 46 51 54 57 57 57 57 57 58
37 29 22 23 20 7 7 10 9 10 7 7 12 13 16 19 23 22 36 31 18 15 15 5 1 4 5 8 7 7 13 19 21 15 13 14 14 18 24 30 35 40 44 47 50 52 53 54 56 57 60 59 58 58
16 21 19 12 10 8 8 9 9 9 6 6 9 10 12 13 16 25 32 22 21 11 4 5 7 8 8 6 5 12 17 25 7 7 14 19 22 29 34 35 37 40 45 50 53 55 58 62 64 64 62 60 60 62
7 10 12 12 16 14 10 7 11 9 10 9 15 9 11 17 11 10 10 16 6 7 6 19 24 19 13 10 10 22 19 23 26 27 31 37 37 36 37 38 41 45 49 51 56 59 62 64 61 59 62 62 60 60
2 3 6 10 12 9 11 13 10 9 7 11 9 8 9 6 7 8 13 9 10 16 19 23 29 20 27 30 29 30 30 32 36 39 41 42 46 45 45 44 42 44 47 51 54 58 62 62 64 65 65 65 63 62
7 3 3 4 5 8 5 6 5 6 5 4 4 5 4 3 6 10 6 13 17 28 33 34 33 29 28 29 30 30 31 33 38 39 39 41 44 46 47 47 46 50 56 59 62 63 66 66 65 62 62 62 62 63
12 3 2 3 5 4 7 5 6 7 7 3 3 4 3 3 5 4 6 9 23 29 27 21 18 22 26 30 31 27 24 28 29 32 33 37 40 40 41 46 50 54 58 64 65 64 63 60 56 54 51 48 46 44
1 2 2 5 6 6 5 3 3 3 5 3 5 2 3 3 3 3 5 12 18 24 20 21 25 28 31 27 21 16 18 21 22 25 29 34 40 45 48 51 55 57 58 57 53 51 48 45 43 41 37 31 26 24
6 7 6 11 5 7 7 7 8 7 6 5 4 5 3 3 2 10 7 20 32 29 23 21 21 22 23 18 16 16 20 25 31 36 39 40 43 47 51 56 57 47 46 45 42 38 35 32 29 25 19 11 6 7
10 12 12 11 11 15 7 5 7 4 9 9 8 8 6 6 10 9 18 32 35 31 23 19 22 21 20 22 22 24 30 36 38 40 44 46 46 46 46 44 41 37 36 32 30 29 26 21 15 10 4 2 4 6
11 30 16 26 13 14 9 6 10 13 8 15 22 9 16 16 11 9 8 15 15 14 16 16 16 17 22 27 30 35 37 38 42 45 46 45 43 39 36 33 30 25 23 21 18 15 12 7 2 4 7 7 11 14
14 25 29 9 8 10 19 14 14 19 20 33 11 9 11 16 17 15 14 13 16 17 14 16 19 25 31 36 38 40 42 43 44 45 44 38 33 29 26 23 19 16 13 10 8 4 3 8 11 13 15 17 21 24
22 43 17 17 14 16 24 32 17 26 35 30 18 14 20 27 30 29 27 23 21 23 27 31 35 38 39 41 44 44 42 39 38 35 31 25 20 20 17 12 8 5 5 4 4 9 15 20 24 27 29 32 31 31
20 37 11 16 10 18 29 39 31 24 27 28 33 27 31 19 28 32 33 32 31 35 40 40 41 38 37 38 38 37 33 31 27 22 18 13 11 9 4 2 5 8 11 14 17 21 26 32 35 37 38 38 36 30
18 19 11 10 6 7 12 15 14 17 16 17 17 23 20 15 14 30 40 45 48 43 38 34 31 26 24 29 31 29 24 17 11 8 5 4 1 4 8 12 16 19 22 26 31 35 38 41 42 41 40 37 33 27
5 7 6 8 7 8 12 13 13 7 9 9 13 15 16 12 14 17 23 30 27 23 23 26 24 21 20 19 15 8 3 3 6 5 4 9 12 15 19 23 27 31 36 41 43 43 43 43 43 40 35 31 26 21
Wind_Direction_850mb
283 274 268 270 263 261 264 261 262 261 260 248 248 252 241 207 201 207 219 223 202 218 258 236 242 181 168 182 164 134 129 177 181 211 213 185 239 192 227 128 180 179 174 188 197 225 257 140 139 219 42 303 307 313
285 272 270 267 262 254 255 256 258 250 251 245 238 250 256 198 196 206 209 214 197 207 201 239 231 228 216 192 166 171 28 152 174 199 207 181 207 179 247 238 189 215 233 194 212 195 92 163 68 226 332 312 322 318
297 284 270 260 259 251 248 249 248 248 247 236 238 240 240 206 195 206 215 195 187 200 231 196 174 177 199 189 186 170 206 175 183 149 137 108 243 194 218 228 207 217 205 243 212 160 175 176 158 327 343 326 322 322
295 286 270 257 253 249 241 246 244 240 236 235 238 243 233 209 189 202 207 191 184 160 201 185 206 205 212 222 210 207 200 186 176 142 124 173 219 203 282 343 246 48 164 198 238 134 109 146 124 358 347 341 335 334
298 286 269 251 246 242 234 239 236 233 235 233 249 255 227 191 186 194 200 196 190 192 147 135 193 228 229 222 214 220 216 182 159 147 151 194 156 190 159 276 238 189 187 194 209 143 92 133 171 323 350 348 348 346
300 289 269 246 237 232 229 232 230 227 227 222 240 239 209 179 182 166 178 208 198 191 145 144 214 232 229 237 229 200 187 183 168 150 166 178 179 218 231 246 238 198 198 169 161 144 128 159 171 337 350 347 354 359
306 294 263 233 224 222 221 225 220 214 218 216 230 189 163 176 180 164 181 190 188 187 209 110 164 223 143 129 161 200 188 154 152 154 168 161 188 200 251 245 179 187 182 186 176 151 128 146 169 346 15 11 12 14
325 329 211 199 211 212 213 216 207 209 216 211 214 206 168 164 165 168 149 157 167 165 177 133 109 177 160 122 125 120 134 149 75 100 140 186 145 217 255 229 185 167 177 183 176 176 159 156 143 70 38 34 28 22
329 352 177 186 202 211 204 199 194 196 203 189 204 172 154 160 153 148 139 144 157 162 163 175 172 166 156 108 101 100 107 153 212 210 172 185 171 224 244 206 194 190 186 186 175 166 157 153 137 81 35 27 22 15
334 307 201 201 199 197 189 184 184 183 179 185 180 158 99 151 148 130 127 132 161 235 166 139 129 132 174 153 94 132 101 122 213 157 147 227 251 249 252 238 221 197 192 181 166 169 173 164 132 60 31 18 11 2
358 3 199 198 187 179 175 175 176 174 167 142 122 83 137 134 129 96 109 149 156 217 180 136 145 133 165 164 139 36 166 139 225 134 227 220 259 234 237 216 200 192 190 181 181 169 164 146 114 65 26 10 2 353
11 41 158 177 175 169 170 169 169 168 161 163 139 134 151 117 87 95 81 128 207 200 161 156 137 117 143 140 116 155 154 179 234 104 224 250 245 235 192 179 173 178 175 172 170 166 157 132 62 21 1 355 351 347
345 15 171 170 175 173 173 173 183 181 161 138 135 136 165 92 126 169 163 181 198 169 172 161 133 135 124 129 96 153 174 202 114 200 236 243 209 203 180 173 168 169 169 171 170 163 162 101 354 335 335 335 336 337
305 307 212 179 176 175 175 175 172 144 142 105 123 140 214 184 187 167 152 126 127 133 146 142 115 129 138 150 138 171 72 226 220 230 237 255 265 205 180 174 173 170 172 175 175 194 229 288 301 310 317 320 319 321
296 271 217 175 169 165 166 167 171 155 92 90 111 162 200 125 63 120 110 109 123 145 135 109 87 104 111 111 52 119 156 241 231 238 246 313 246 179 172 173 172 175 180 191 212 244 275 287 294 300 303 306 308 310
80 92 149 165 168 161 156 156 134 100 71 76 86 119 105 131 140 106 117 126 132 140 118 94 108 144 103 103 168 215 217 229 239 237 276 280 177 169 170 172 175 183 204 227 255 274 282 290 294 294 293 295 299 302
99 87 102 127 138 146 146 121 83 49 75 74 74 111 129 84 120 136 128 133 145 135 107 133 146 144 118 172 234 204 221 273 301 297 164 150 154 161 167 180 198 223 246 262 274 279 284 286 287 289 291 297 297 296
126 140 112 105 105 106 106 78 86 86 66 46 8 50 71 103 124 112 116 145 143 134 130 124 129 169 197 199 217 217 229 257 226 147 140 144 143 161 193 224 248 260 266 271 278 280 280 283 286 289 293 294 293 294
107 109 104 95 78 88 63 47 55 98 95 107 88 72 83 86 101 122 144 144 129 127 122 105 158 216 230 229 264 247 195 160 146 133 144 176 209 234 249 258 264 269 274 276 276 276 279 281 286 288 289 291 291 289
96 96 70 63 21 72 72 52 60 82 89 105 99 80 81 85 107 130 145 142 137 132 152 191 216 219 220 271 250 168 136 160 176 219 241 243 257 265 268 271 271 274 275 277 277 279 282 285 287 290 290 288 284 282
44 79 61 11 41 63 83 58 56 72 97 86 113 72 87 100 105 149 148 156 162 212 227 226 231 240 228 202 195 194 225 256 263 268 277 284 284 282 278 275 275 277 279 282 284 287 290 292 294 292 291 288 284 279
317 151 68 34 36 54 65 48 91 95 88 123 118 106 120 116 114 141 179 194 232 226 217 242 260 254 236 244 249 252 257 264 267 271 274 275 274 275 276 274 272 275 279 283 287 291 293 295 294 292 289 287 282 278
205 163 55 55 72 48 65 60 73 57 86 122 95 90 73 98 168 159 229 229 242 249 256 261 264 265 263 261 260 262 264 265 268 272 275 275 275 275 272 273 280 287 294 297 298 298 299 298 296 295 292 289 284 277
136 153 129 73 61 115 121 59 78 93 101 84 120 133 157 149 146 220 258 251 244 256 254 252 258 262 264 268 274 286 283 283 286 287 289 288 288 285 282 286 290 293 297 297 299 298 298 300 301 301 300 295 288 279
265 275 140 52 103 111 90 97 49 99 122 159 128 193 140 144 184 223 243 265 254 256 261 265 265 267 267 274 276 268 274 285 292 298 300 296 294 292 291 293 295 298 298 297 298 299 301 301 302 303 301 294 288 284
211 198 177 183 152 168 169 144 185 171 124 149 183 122 111 117 133 242 230 247 259 269 278 294 286 265 259 251 254 259 270 283 288 287 290 292 293 293 295 296 299 304 303 301 301 300 303 306 307 307 308 311 291 248
191 209 183 181 161 143 101 100 136 147 169 187 167 161 146 166 234 247 244 258 267 279 288 269 259 253 252 259 264 275 282 285 287 288 290 292 294 296 297 298 302 305 302 302 304 305 305 302 305 315 350 67 130 170
203 176 172 175 172 183 138 154 177 197 193 164 137 176 181 197 225 211 251 288 303 296 250 245 255 264 274 282 285 285 288 292 292 292 293 295 299 299 299 301 305 305 307 310 308 304 298 290 263 128 117 129 144 140
174 174 156 136 146 193 205 187 201 215 188 170 181 194 224 220 233 232 243 254 282 299 275 256 266 277 284 286 286 289 293 295 295 295 296 299 302 302 304 308 310 311 315 319 313 293 162 139 132 129 132 133 132 130
187 176 164 164 170 207 216 200 214 216 202 205 215 226 240 249 253 254 250 246 253 265 270 277 284 290 289 287 289 291 294 293 290 287 290 297 299 303 307 312 319 343 19 33 69 117 123 126 128 129 130 127 124 122
174 181 172 175 216 210 212 212 220 216 214 230 237 241 247 256 259 264 264 265 269 274 278 278 281 283 288 290 292 294 294 294 288 288 289 290 301 304 306 115 111 106 104 105 112 120 124 125 124 123 123 122 120 119
179 190 179 183 191 226 212 199 200 205 213 210 229 238 253 257 261 271 266 272 270 266 266 267 264 266 278 285 288 289 291 295 285 268 252 289 298 133 128 122 118 117 117 119 121 122 124 125 124 123 120 117 113 107
194 188 169 136 145 159 178 167 191 200 215 221 222 227 225 231 245 256 258 253 252 242 238 245 255 267 276 277 278 284 265 195 173 168 149 138 132 128 125 126 126 125 124 123 123 124 124 122 119 117 114 108 100 89